Location: Asheville, NC
(35.6000°N, 82.5500°W)
Time: 00:41:39
(UTC-04:00)

Vanguard 1 - Pass Details

Date: 11 March 2018
Orbit: 650 x 3833 km, 34.3° (Epoch: 17 June)

Event Time Altitude Azimuth Distance (km) Brightness Sun altitude
Rises 07:08:13 0° 189° (S) 6,575 14.2 -8.6°
Reaches altitude 10° 07:13:43 10° 176° (S) 6,016 14.1 -7.5°
Maximum altitude 07:28:04 24° 131° (SE) 5,632 14.6 -4.6°
Drops below altitude 10° 07:44:07 10° 87° (E) 6,871 16.5 -1.3°
Sets 07:50:50 0° 76° (ENE) 7,693 16.3 0.0°
